This demonstration page uses our WeatherBlox Daily Observations layout. Learn more.

Left ArrowRight Arrow

Hourly Observations for May 16, 2020

Temp ( °F °C ) Dew Point ( °F °C ) Humidity (%) Winds ( mph kmh ) Pressure ( in mb ) Visibility ( mi km ) Precip ( " mm )
12:56 am 00:56 Clear 59 15 48 8.9 67 67 ESE 12 19 29.90 1013 10 16 0.00 0.00
1:56 am 01:56 Mostly Clear 60 15.6 50 10 70 70 SE 12 19 29.91 1013 10 16 0.00 0.00
2:56 am 02:56 Mostly Clear 58 14.4 50 10 75 75 E 7 11 29.90 1013 10 16 0.00 0.00
3:27 am 03:27 Mostly Cloudy 57 14 52 11 82 82 ESE 9 15 29.90 1013 10 16 0.00 0.00
3:51 am 03:51 Cloudy 57 14 52 11 82 82 ESE 7 11 29.91 1013 10 16 0.00 0.00
3:56 am 03:56 Cloudy 58 14.4 51 10.6 78 78 ESE 7 11 29.91 1013 10 16 0.00 0.00
4:56 am 04:56 Cloudy 58 14.4 52 11.1 81 81 E 8 13 29.90 1013 10 16 0.00 0.00
5:09 am 05:09 Cloudy 57 14 52 11 82 82 E 7 11 29.91 1013 10 16 0.00 0.00
5:56 am 05:56 Cloudy 58 14.4 53 11.7 84 84 ENE 7 11 29.90 1013 10 16 0.00 0.00
6:56 am 06:56 Cloudy with Light Rain 56 13.3 51 10.6 84 84 Calm 29.92 1013 10 16 0.00 0.00
7:29 am 07:29 Cloudy 55 13 52 11 88 88 ENE 7 11 29.94 1014 10 16 0.00 0.00
7:56 am 07:56 Cloudy 57 13.9 52 11.1 83 83 E 9 15 29.92 1013 10 16 0.00 0.00
8:34 am 08:34 Cloudy with Light Rain 55 13 54 12 94 94 NW 6 9 29.95 1014 10 16 0.00 0.00
8:56 am 08:56 Cloudy with Rain 54 12.2 52 11.1 93 93 NNW 9 15 29.93 1014 4 6 0.07 1.78
9:56 am 09:56 Cloudy with Light Rain 54 12.2 54 12.2 100 100 NE 10 17 29.91 1013 5 8 0.20 5.08
10:56 am 10:56 Cloudy with Mist and Fog 58 14.4 57 13.9 97 97 E 9 15 29.91 1013 5 8 0.01 0.25
11:56 am 11:56 Cloudy with Light Rain 60 15.6 58 14.4 93 93 E 7 11 29.93 1013 5 8 0.00 0.00
12:43 pm 12:43 Cloudy with Light Rain 61 16 59 15 94 94 S 6 9 29.91 1013 10 16 0.00 0.00
12:56 pm 12:56 Cloudy with Rain 60 15.6 58 14.4 93 93 W 7 11 29.93 1014 6 10 0.01 0.25
1:13 pm 13:13 Cloudy with Light Rain 59 15 57 14 94 94 NW 12 19 29.92 1013 5 8 0.00 0.00
1:43 pm 13:43 Cloudy 61 16 57 14 88 88 NNW 12 19 29.91 1013 10 16 0.00 0.00
1:56 pm 13:56 Cloudy 60 15.6 58 14.4 93 93 NNW 12 19 29.93 1013 10 16 0.01 0.25
2:06 pm 14:06 Cloudy 61 16 57 14 88 88 N 13 20 29.91 1013 10 16 0.00 0.00
2:20 pm 14:20 Mostly Cloudy 63 17 59 15 88 88 N 12 19 29.89 1012 10 16 0.00 0.00
2:56 pm 14:56 Partly Cloudy 64 17.8 59 15 84 84 N 8 13 29.91 1013 10 16 0.00 0.00
3:17 pm 15:17 Mostly Cloudy 66 19 57 14 73 73 NNW 12 19 29.86 1011 10 16 0.00 0.00
3:25 pm 15:25 Partly Cloudy 66 19 57 14 73 73 NNW 10 17 29.86 1011 10 16 0.00 0.00
3:56 pm 15:56 Partly Cloudy 68 20 59 15 73 73 N 13 20 29.89 1012 10 16 0.00 0.00
4:56 pm 16:56 Partly Cloudy 67 19.4 59 15 76 76 NNE 12 19 29.88 1012 10 16 0.00 0.00
5:29 pm 17:29 Mostly Cloudy with Nearby Thunderstorms 66 19 57 14 73 73 NNE 7 11 29.84 1011 10 16 0.00 0.00
5:41 pm 17:41 Windy with Storms Likely 61 16 54 12 77 77 NW 33 54 29.90 1012 5 8 0.01 0.25
5:56 pm 17:56 Cloudy with Thunderstorms 58 14.4 51 10.6 78 78 NNW 9 15 29.91 1013 10 16 0.15 3.81
6:09 pm 18:09 Cloudy with Rain 59 15 52 11 77 77 NNE 8 13 29.89 1012 10 16 0.01 0.25
6:56 pm 18:56 Mostly Sunny 64 17.8 56 13.3 75 75 N 10 17 29.90 1013 10 16 0.01 0.25
7:25 pm 19:25 Mostly Cloudy 63 17 57 14 83 83 N 12 19 29.88 1012 10 16 0.00 0.00
7:56 pm 19:56 Partly Cloudy 61 16.1 57 13.9 87 87 N 15 24 29.94 1014 10 16 0.00 0.00
8:56 pm 20:56 Mostly Clear 58 14.4 55 12.8 90 90 NNE 8 13 29.95 1014 10 16 0.00 0.00
9:56 pm 21:56 Clear 56 13.3 54 12.2 93 93 N 7 11 29.96 1015 10 16 0.00 0.00
10:12 pm 22:12 Mostly Cloudy 55 13 55 13 100 100 N 10 17 29.96 1015 10 16 0.00 0.00
10:20 pm 22:20 Mostly Cloudy 55 13 54 12 94 94 NNE 9 15 29.96 1015 10 16 0.00 0.00
10:41 pm 22:41 Mostly Cloudy 55 13 54 12 94 94 NNW 9 15 29.98 1015 10 16 0.00 0.00
10:56 pm 22:56 Mostly Cloudy 55 12.8 53 11.7 93 93 N 9 15 29.99 1016 10 16 0.00 0.00
11:14 pm 23:14 Mostly Cloudy 54 12 54 12 100 100 N 12 19 29.99 1016 9 14 0.00 0.00
11:28 pm 23:28 Mostly Clear 54 12 52 11 94 94 N 14 22 29.99 1016 10 16 0.00 0.00
11:56 pm 23:56 Mostly Clear 54 12.2 51 10.6 90 90 NNW 8 13 29.99 1016 10 16 0.00 0.00

Powered by AerisWeather